Regional Weather Roundup
Issued by NWS Sioux Falls, SD

Home | Current Version | Previous Version | Text Only | Print | Product List | Glossary On
Versions: 1 2 3 4 5 6 7 8 9 10 11 12 13 14 15 16 17 18 19 20 21 22 23 24 25 26 27 28 29 30 31 32 33 34 35 36 37 38 39 40 41 42 43 44 45 46 47 48 49 50
000
ASUS43 KFSD 310802
RWRFSD

WEATHER ROUNDUP FOR SE SOUTH DAKOTA/SW MINNESOTA/NW IOWA
NATIONAL WEATHER SERVICE SIOUX FALLS SD
300 AM CDT SUN JUL 31 2016

NOTE: "FAIR" INDICATES FEW OR NO CLOUDS BELOW 12,000 FEET WITH NO
SIGNIFICANT WEATHER AND OR OBSTRUCTIONS TO VISIBILITY.


SDZ038>040-050-052>070-310900-
SOUTHEAST SOUTH DAKOTA

CITY           SKY/WX    TMP DP  RH WIND       PRES   REMARKS
BROOKINGS      PTCLDY    63  59  87 SE9       29.93F
CHAMBERLAIN    CLOUDY    75  70  86 S17G23    29.84F
HURON          CLOUDY    71  62  73 SE12      29.86F
MADISON        FAIR      64  64 100 SE7       29.94F
MITCHELL       CLOUDY    73  64  73 SE14      29.89F
SIOUX FALLS    CLEAR     69  61  75 SE9       29.93F
WINNER         PTSUNNY   68  62  81 W10       29.91S
YANKTON        CLOUDY    70  63  78 E6        29.91S
$$

MNZ071-072-080-081-089-090-097-098-310900-
SOUTHWEST MINNESOTA

CITY           SKY/WX    TMP DP  RH WIND       PRES   REMARKS
FAIRMONT       CLEAR     63  57  82 SE3       29.98S
JACKSON        PTCLDY    66  63  88 S7        30.00R
LUVERNE        CLEAR     61  59  94 SE3       29.97S
MARSHALL       CLEAR     65  62  90 S8        29.96S
MONTEVIDEO     CLEAR     63  61  94 S8        29.96F
REDWOOD FALLS  CLEAR     64  61  90 SE6       29.96F
TRACY          CLEAR     66  63  91 S7        29.97F FOG
WINDOM         CLEAR     66  63  88 SE7       29.98F
WORTHINGTON    PTCLDY    64  62  93 S8        29.99S
$$

IAZ001>003-012>014-020>022-031-032-NEZ013-014-SDZ071-310900-
NORTHWEST IOWA

CITY           SKY/WX    TMP DP  RH WIND       PRES   REMARKS
CHEROKEE       CLEAR     64  64 100 S3        29.96F
DENISON        CLOUDY    64  63  94 E5        29.95F
ESTHERVILLE    CLEAR     61  61 100 S5        29.99S FOG
LE MARS        CLOUDY    66  63  88 SE9       29.95F
SHELDON        CLEAR     63  61  94 SE3       29.95F
SIOUX CITY     MOCLDY    68  63  84 SE6       29.93F
SPENCER        PTCLDY    63  61  93 SE6       29.98F
STORM LAKE     CLOUDY    63  63 100 SE5       29.98F
$$

ABBREVIATIONS USED IN REMARKS
   TC - TEMPERATURE IN CELSIUS
  WCI - WIND CHILL INDEX
   HX - HEAT INDEX
  VSB - VISIBILITY





USA.gov is the U.S. government's official web portal to all federal, state and local government web resources and services.